Date String (YYYY-MM-DD hh:mm:ss) UTC,Instrument flags,absolute air pressure of the measurement (hPa),sample flow rate (lpm),inlet stack bypass flow (lpm),air temperature of the measurement (°C),ambient temperature measured by the external sensor (°C),aerosol sample conditioner tube jacket temperature (°C),OPC LED temperature (°C),internal box temperature (°C),relative humidity of the measurement (%),span deviation,mass concentration of particles derived from Lorenz-Mie calculation of OPC scattering (μg/m³),mass concentration of particles derived from Lorenz-Mie calculation of OPC scattering (μg/m³),mass concentration of particles derived from Lorenz-Mie calculation of OPC scattering (μg/m³)
DateTimeUTC,F1_M11,P_M11,Q1_M11,Q2_M11,T1_M11,T2_M11,T3_M11,T4_M11,T5_M11,U1_M11,ZSPAN_M11,X2_M11,X0_M11,X1_M11
2024-05-25 14:00:00,SystemResetWarning,0820.7,4.99,000.00,028.8,028.0,000.0,037.1,030.5,014.5,0000.0,0003.69,0012.24,0002.16
2024-05-25 14:01:00,SystemResetWarning,0820.8,4.99,000.00,028.8,028.0,000.0,037.1,030.5,014.7,0000.0,0003.72,0012.59,0002.16
2024-05-25 14:02:00,SystemResetWarning,0820.7,5.00,000.00,028.8,028.0,000.0,037.1,030.5,014.9,0000.0,0003.81,0012.71,0002.16
2024-05-25 14:03:00,SystemResetWarning,0820.8,5.00,000.00,028.8,028.1,000.0,037.1,030.5,014.7,0000.0,0003.83,0013.19,0002.16
2024-05-25 14:04:00,SystemResetWarning,0820.7,5.01,000.00,028.8,028.1,000.0,037.1,030.5,015.0,0000.0,0003.84,0013.38,0002.18
2024-05-25 14:05:00,SystemResetWarning,0820.7,5.01,000.00,028.8,028.1,000.0,037.1,030.5,015.4,0000.0,0003.83,0013.63,0002.17
2024-05-25 14:06:00,SystemResetWarning,0820.6,4.99,000.00,028.9,028.1,000.0,037.1,030.5,015.4,0000.0,0003.83,0013.92,0002.18
2024-05-25 14:07:00,SystemResetWarning,0820.6,4.99,000.00,028.9,028.1,000.0,037.1,030.5,015.4,0000.0,0003.79,0013.94,0002.17
2024-05-25 14:08:00,SystemResetWarning,0820.6,5.02,000.00,028.9,028.1,000.0,037.1,030.6,015.3,0000.0,0003.79,0013.03,0002.16
2024-05-25 14:09:00,SystemResetWarning,0820.6,5.00,000.00,028.9,028.1,000.0,037.2,030.6,016.1,0000.0,0003.80,0013.76,0002.14
2024-05-25 14:10:00,SystemResetWarning,0820.6,4.99,000.00,028.9,028.1,000.0,037.2,030.6,016.1,0000.0,0003.79,0013.88,0002.15
2024-05-25 14:11:00,SystemResetWarning,0820.6,4.99,000.00,028.9,028.1,000.0,037.2,030.6,015.7,0000.0,0003.79,0014.37,0002.16
2024-05-25 14:12:00,SystemResetWarning,0820.7,5.00,000.00,028.9,028.1,000.0,037.2,030.6,015.7,0000.0,0003.79,0014.70,0002.16
2024-05-25 14:13:00,SystemResetWarning,0820.7,5.00,000.00,028.9,028.1,000.0,037.2,030.6,016.2,0000.0,0003.74,0016.15,0002.16
2024-05-25 14:14:00,SystemResetWarning,0820.7,5.01,000.00,028.9,028.1,000.0,037.2,030.6,016.0,0000.0,0003.77,0016.55,0002.17
2024-05-25 14:15:00,SystemResetWarning,0820.8,5.01,000.00,028.9,028.2,000.0,037.2,030.6,015.7,0000.0,0003.86,0016.77,0002.17
2024-05-25 14:16:00,SystemResetWarning,0820.7,5.01,000.00,028.9,028.2,000.0,037.2,030.6,015.8,0000.0,0003.95,0017.90,0002.19
2024-05-25 14:17:00,SystemResetWarning,0820.7,5.00,000.00,028.9,028.2,000.0,037.2,030.6,015.9,0000.0,0003.97,0017.69,0002.19
2024-05-25 14:18:00,SystemResetWarning,0820.7,4.99,000.00,029.0,028.2,000.0,037.2,030.6,014.9,0000.0,0003.97,0017.64,0002.21
2024-05-25 14:19:00,SystemResetWarning,0820.7,5.00,000.00,029.0,028.2,000.0,037.2,030.6,015.2,0000.0,0003.97,0018.35,0002.23
2024-05-25 14:20:00,SystemResetWarning,0820.7,5.02,000.00,029.0,028.2,000.0,037.2,030.6,015.3,0000.0,0004.01,0019.09,0002.25
2024-05-25 14:21:00,SystemResetWarning,0820.7,4.99,000.00,029.0,028.2,000.0,037.2,030.7,015.5,0000.0,0004.05,0019.44,0002.25
2024-05-25 14:22:00,SystemResetWarning,0820.7,4.99,000.00,029.0,028.2,000.0,037.3,030.7,015.5,0000.0,0004.04,0018.90,0002.25
2024-05-25 14:23:00,SystemResetWarning,0820.7,5.00,000.00,029.0,028.2,000.0,037.3,030.7,015.4,0000.0,0004.08,0018.42,0002.26
2024-05-25 14:24:00,SystemResetWarning,0820.7,5.01,000.00,029.0,028.2,000.0,037.3,030.7,014.8,0000.0,0004.14,0017.97,0002.27
2024-05-25 14:25:00,SystemResetWarning,0820.6,5.00,000.00,029.0,028.2,000.0,037.3,030.7,014.9,0000.0,0004.12,0017.79,0002.28
2024-05-25 14:26:00,SystemResetWarning,0820.6,5.01,000.00,029.0,028.2,000.0,037.3,030.7,014.7,0000.0,0004.05,0018.35,0002.27
2024-05-25 14:27:00,SystemResetWarning,0820.6,5.01,000.00,029.0,028.3,000.0,037.3,030.7,014.6,0000.0,0003.99,0017.55,0002.28
2024-05-25 14:28:00,SystemResetWarning,0820.6,5.00,000.00,029.0,028.3,000.0,037.3,030.7,014.7,0000.0,0003.94,0017.35,0002.26
2024-05-25 14:29:00,SystemResetWarning,0820.6,5.00,000.00,029.0,028.3,000.0,037.3,030.7,015.6,0000.0,0003.96,0016.71,0002.25
2024-05-25 14:30:00,SystemResetWarning,0820.6,5.00,000.00,029.1,028.3,000.0,037.3,030.7,015.9,0000.0,0003.98,0016.30,0002.24
2024-05-25 14:31:00,SystemResetWarning,0820.6,5.02,000.00,029.1,028.3,000.0,037.3,030.7,016.3,0000.0,0003.97,0014.85,0002.23
2024-05-25 14:32:00,SystemResetWarning,0820.6,5.00,000.00,029.1,028.3,000.0,037.3,030.7,016.8,0000.0,0003.96,0014.48,0002.22
2024-05-25 14:33:00,SystemResetWarning,0820.6,4.99,000.00,029.1,028.3,000.0,037.4,030.8,016.9,0000.0,0003.96,0015.58,0002.23
2024-05-25 14:34:00,SystemResetWarning,0820.6,5.00,000.00,029.1,028.3,000.0,037.4,030.8,015.9,0000.0,0003.93,0016.86,0002.22
2024-05-25 14:35:00,SystemResetWarning,0820.6,5.01,000.00,029.1,028.3,000.0,037.4,030.8,015.3,0000.0,0003.87,0015.93,0002.22
2024-05-25 14:36:00,SystemResetWarning,0820.6,5.01,000.00,029.1,028.3,000.0,037.4,030.8,016.2,0000.0,0003.89,0015.66,0002.22
2024-05-25 14:37:00,SystemResetWarning,0820.6,5.00,000.00,029.1,028.3,000.0,037.4,030.8,017.3,0000.0,0003.90,0015.07,0002.21
2024-05-25 14:38:00,SystemResetWarning,0820.6,4.99,000.00,029.1,028.3,000.0,037.4,030.8,017.5,0000.0,0003.87,0014.25,0002.23
2024-05-25 14:39:00,SystemResetWarning,0820.6,4.99,000.00,029.1,028.4,000.0,037.4,030.8,015.8,0000.0,0003.87,0013.84,0002.23
2024-05-25 14:40:00,SystemResetWarning,0820.6,4.99,000.00,029.1,028.4,000.0,037.4,030.8,015.3,0000.0,0003.82,0013.21,0002.21
2024-05-25 14:41:00,SystemResetWarning,0820.6,5.00,000.00,029.1,028.4,000.0,037.4,030.8,015.2,0000.0,0003.83,0013.32,0002.21
2024-05-25 14:42:00,SystemResetWarning,0820.6,5.00,000.00,029.2,028.4,000.0,037.4,030.8,015.2,0000.0,0003.77,0013.64,0002.20
2024-05-25 14:43:00,SystemResetWarning,0820.6,5.00,000.00,029.2,028.4,000.0,037.5,030.8,015.7,0000.0,0003.74,0014.14,0002.21
2024-05-25 14:44:00,SystemResetWarning,0820.6,5.00,000.00,029.2,028.4,000.0,037.5,030.8,016.8,0000.0,0003.71,0014.02,0002.19
2024-05-25 14:45:00,SystemResetWarning,0820.6,5.01,000.00,029.2,028.4,000.0,037.5,030.8,016.8,0000.0,0003.74,0012.32,0002.19
2024-05-25 14:46:00,SystemResetWarning,0820.5,5.00,000.00,029.2,028.4,000.0,037.5,030.9,016.3,0000.0,0003.73,0012.40,0002.19
2024-05-25 14:47:00,SystemResetWarning,0820.5,5.00,000.00,029.2,028.4,000.0,037.5,030.9,016.2,0000.0,0003.68,0012.44,0002.18
2024-05-25 14:48:00,SystemResetWarning,0820.5,4.99,000.00,029.2,028.4,000.0,037.5,030.9,016.1,0000.0,0003.68,0013.17,0002.19
2024-05-25 14:49:00,SystemResetWarning,0820.6,4.99,000.00,029.2,028.4,000.0,037.5,030.9,016.2,0000.0,0003.74,0014.02,0002.17
2024-05-25 14:50:00,SystemResetWarning,0820.6,5.01,000.00,029.2,028.5,000.0,037.5,030.9,015.7,0000.0,0003.81,0014.40,0002.17
2024-05-25 14:51:00,SystemResetWarning,0820.6,5.00,000.00,029.2,028.5,000.0,037.5,030.9,016.4,0000.0,0003.85,0014.81,0002.17
2024-05-25 14:52:00,SystemResetWarning,0820.5,5.01,000.00,029.3,028.5,000.0,037.5,030.9,016.4,0000.0,0003.84,0015.40,0002.18
2024-05-25 14:53:00,SystemResetWarning,0820.6,5.00,000.00,029.3,028.5,000.0,037.5,030.9,016.5,0000.0,0003.89,0016.03,0002.19
2024-05-25 14:54:00,SystemResetWarning,0820.5,5.00,000.00,029.3,028.5,000.0,037.5,030.9,016.4,0000.0,0003.90,0016.45,0002.19
2024-05-25 14:55:00,SystemResetWarning,0820.5,5.00,000.00,029.3,028.5,000.0,037.5,030.9,016.0,0000.0,0003.92,0015.33,0002.21
2024-05-25 14:56:00,SystemResetWarning,0820.6,5.00,000.00,029.3,028.5,000.0,037.6,030.9,016.0,0000.0,0003.89,0014.98,0002.19
2024-05-25 14:57:00,SystemResetWarning,0820.8,5.00,000.00,029.3,028.5,000.0,037.6,031.0,016.1,0000.0,0003.90,0015.03,0002.18
2024-05-25 14:58:00,SystemResetWarning,0820.9,4.99,000.00,029.3,028.5,000.0,037.6,031.0,016.1,0000.0,0003.93,0014.73,0002.18
2024-05-25 14:59:00,SystemResetWarning,0820.8,5.00,000.00,029.3,028.5,000.0,037.6,031.0,016.3,0000.0,0003.93,0014.49,0002.17
